Location: Hains Lake
(37.8540°N, 99.8578°W)
Time: 16:08:57
(UTC+00:00)

Vanguard 1 - Pass Details

Date: 08 December 2021
Orbit: 652 x 3830 km, 34.2° (Epoch: 22 January)

Event Time Altitude Azimuth Distance (km) Brightness Sun altitude
Exits shadow 11:12:57 37° 263° (W) 4,643 12.9 -28.8°
Maximum altitude 11:21:45 54° 213° (SSW) 3,549 12.6 -27.1°
Drops below altitude 10° 11:35:32 10° 141° (SE) 4,648 14.1 -24.4°
Sets 11:38:32 0° 136° (SE) 5,299 14.7 -23.8°
